Location: Eboldshausen
(51.7766°N, 10.0050°E)
Time: 17:04:00
(UTC+00:00)

CZ-4 R/B - Pass Details

Date: 15 November 2025
Orbit: 547 x 556 km, 97.6° (Epoch: 10 December)

Event Time Altitude Azimuth Distance (km) Brightness Sun altitude
Rises 17:11:11 0° 161° (SSE) 2,727 7.8 -15.6°
Reaches altitude 10° 17:13:18 10° 161° (SSE) 1,835 6.9 -15.9°
Maximum altitude 17:17:16 80° 76° (ENE) 569 4.2 -16.5°
Drops below altitude 10° 17:21:16 10° 348° (NNW) 1,844 7.0 -17.1°
Sets 17:23:24 0° 348° (NNW) 2,742 7.9 -17.4°
